UAL1075 KROC-KSTL

Flight info

Callsign UAL1075
Flight time 1h 52m
Altitude 38000
Route GEE BURST JHW Q29 CREEP J110 VHP J80 SPI
Aircraft A320/M-SDE3FGHIRWY/LB1

Departure

Time 2026-04-28 01:08
Airport Frederick Douglass Greater Rochester International Airport (KROC)

Arrival

Time 2026-04-28 03:01
Airport St. Louis Lambert International Airport (KSTL)
Time Latitude Longitude Altitude Speed Heading
2026-04-28 00:38 43.12566 -77.66756 560 ft 0 kts 41°
2026-04-28 00:59 43.12553 -77.66771 567 ft 3 kts 41°
2026-04-28 00:59 43.12539 -77.66782 568 ft 2 kts 339°
2026-04-28 00:59 43.12532 -77.66779 566 ft 0 kts 315°
2026-04-28 01:00 43.12533 -77.66780 560 ft 0 kts 315°
2026-04-28 01:00 43.12535 -77.66782 560 ft 1 kts 314°
2026-04-28 01:00 43.12535 -77.66783 560 ft 0 kts 314°
2026-04-28 01:01 43.12536 -77.66783 560 ft 0 kts 314°
2026-04-28 01:02 43.12536 -77.66784 560 ft 0 kts 314°
2026-04-28 01:02 43.12535 -77.66791 575 ft 1 kts 266°
2026-04-28 01:03 43.12527 -77.66812 565 ft 5 kts 248°
2026-04-28 01:03 43.12513 -77.66879 567 ft 9 kts 264°
2026-04-28 01:03 43.12509 -77.66973 559 ft 11 kts 266°
2026-04-28 01:03 43.12507 -77.67085 558 ft 8 kts 271°
2026-04-28 01:04 43.12507 -77.67095 558 ft 0 kts 274°
2026-04-28 01:07 43.12507 -77.67101 558 ft 2 kts 275°
2026-04-28 01:07 43.12523 -77.67148 565 ft 9 kts 299°
2026-04-28 01:07 43.12523 -77.67224 559 ft 9 kts 236°
2026-04-28 01:07 43.12490 -77.67258 558 ft 9 kts 211°
2026-04-28 01:08 43.12201 -77.67499 564 ft 86 kts 211°
2026-04-28 01:08 43.11503 -77.68085 565 ft 147 kts 211°
2026-04-28 01:08 43.10537 -77.68900 858 ft 170 kts 211°
2026-04-28 01:08 43.09499 -77.69784 1309 ft 181 kts 209°
2026-04-28 01:09 43.08362 -77.70738 1746 ft 203 kts 207°
2026-04-28 01:09 43.07130 -77.71931 2167 ft 230 kts 212°
2026-04-28 01:09 43.05803 -77.73312 2800 ft 245 kts 213°
2026-04-28 01:09 43.04902 -77.74256 3439 ft 247 kts 213°
2026-04-28 01:10 43.03519 -77.75689 4371 ft 251 kts 213°
2026-04-28 01:10 43.02110 -77.77138 5291 ft 256 kts 213°
2026-04-28 01:10 43.00662 -77.78592 6164 ft 261 kts 213°
2026-04-28 01:10 42.99195 -77.80014 6970 ft 267 kts 213°
2026-04-28 01:11 42.97651 -77.81466 7796 ft 271 kts 213°
2026-04-28 01:11 42.96078 -77.82918 8642 ft 275 kts 213°
2026-04-28 01:11 42.94471 -77.84374 9461 ft 280 kts 213°
2026-04-28 01:11 42.92823 -77.85833 9876 ft 283 kts 213°
2026-04-28 01:12 42.91166 -77.87279 9983 ft 283 kts 213°
2026-04-28 01:12 42.89503 -77.88730 10000 ft 284 kts 213°
2026-04-28 01:12 42.87763 -77.90248 10015 ft 312 kts 213°
2026-04-28 01:12 42.85850 -77.91920 10013 ft 340 kts 213°
2026-04-28 01:13 42.83830 -77.93690 10006 ft 344 kts 213°
2026-04-28 01:13 42.80048 -77.97001 10009 ft 316 kts 213°
2026-04-28 01:13 42.78151 -77.98674 10005 ft 321 kts 213°
2026-04-28 01:14 42.76335 -78.00273 10009 ft 303 kts 213°
2026-04-28 01:14 42.74583 -78.01817 10009 ft 299 kts 213°
2026-04-28 01:14 42.72785 -78.03402 10013 ft 322 kts 213°
2026-04-28 01:14 42.70875 -78.05217 10022 ft 345 kts 222°
2026-04-28 01:15 42.69375 -78.07813 10540 ft 353 kts 237°
2026-04-28 01:15 42.68040 -78.10629 11235 ft 356 kts 237°
2026-04-28 01:15 42.66684 -78.13465 11912 ft 359 kts 237°
2026-04-28 01:15 42.65319 -78.16312 12640 ft 362 kts 237°
2026-04-28 01:16 42.63934 -78.19192 13289 ft 366 kts 237°
2026-04-28 01:16 42.62538 -78.22101 13997 ft 368 kts 237°
2026-04-28 01:16 42.61133 -78.25038 14518 ft 374 kts 237°
2026-04-28 01:16 42.59709 -78.28015 15079 ft 377 kts 237°
2026-04-28 01:17 42.58275 -78.31011 15677 ft 380 kts 237°
2026-04-28 01:17 42.56826 -78.34035 16260 ft 384 kts 237°
2026-04-28 01:17 42.55362 -78.37084 16885 ft 387 kts 237°
2026-04-28 01:17 42.53882 -78.40153 17474 ft 391 kts 237°
2026-04-28 01:18 42.52389 -78.43249 18111 ft 394 kts 237°
2026-04-28 01:18 42.50882 -78.46371 18693 ft 398 kts 237°
2026-04-28 01:18 42.49361 -78.49530 19234 ft 401 kts 237°
2026-04-28 01:18 42.47833 -78.52706 19786 ft 404 kts 238°
2026-04-28 01:19 42.46292 -78.55902 20327 ft 407 kts 238°
2026-04-28 01:19 42.44736 -78.59114 20854 ft 409 kts 238°
2026-04-28 01:19 42.43170 -78.62348 21376 ft 412 kts 238°
2026-04-28 01:19 42.41620 -78.65550 21857 ft 414 kts 239°
2026-04-28 01:20 42.40036 -78.68818 22315 ft 416 kts 239°
2026-04-28 01:20 42.38450 -78.72092 22825 ft 417 kts 239°
2026-04-28 01:20 42.36854 -78.75378 23284 ft 419 kts 239°
2026-04-28 01:20 42.35231 -78.78712 23731 ft 421 kts 239°
2026-04-28 01:21 42.33614 -78.82023 24079 ft 423 kts 239°
2026-04-28 01:21 42.31988 -78.85349 24422 ft 425 kts 239°
2026-04-28 01:21 42.30378 -78.88640 24757 ft 427 kts 239°
2026-04-28 01:21 42.28737 -78.91993 25085 ft 429 kts 239°
2026-04-28 01:22 42.27091 -78.95357 25421 ft 431 kts 239°
2026-04-28 01:22 42.25434 -78.98743 25753 ft 433 kts 239°
2026-04-28 01:22 42.23770 -79.02141 26096 ft 435 kts 239°
2026-04-28 01:22 42.22097 -79.05556 26424 ft 437 kts 240°
2026-04-28 01:23 42.20413 -79.08989 26766 ft 439 kts 239°
2026-04-28 01:23 42.18890 -79.12543 27088 ft 438 kts 247°
2026-04-28 01:23 42.17772 -79.16351 27429 ft 437 kts 253°
2026-04-28 01:23 42.16781 -79.20233 27762 ft 438 kts 253°
2026-04-28 01:24 42.15787 -79.24109 28208 ft 437 kts 253°
2026-04-28 01:24 42.14789 -79.27983 28681 ft 436 kts 253°
2026-04-28 01:24 42.13792 -79.31831 29143 ft 434 kts 253°
2026-04-28 01:24 42.12797 -79.35668 29610 ft 433 kts 253°
2026-04-28 01:25 42.11805 -79.39495 30078 ft 432 kts 254°
2026-04-28 01:25 42.10816 -79.43312 30482 ft 431 kts 253°
2026-04-28 01:25 42.09827 -79.47117 30912 ft 430 kts 253°
2026-04-28 01:25 42.08841 -79.50895 31328 ft 428 kts 253°
2026-04-28 01:26 42.07854 -79.54671 31761 ft 426 kts 253°
2026-04-28 01:26 42.06890 -79.58343 32053 ft 426 kts 253°
2026-04-28 01:26 42.05901 -79.62109 32376 ft 426 kts 254°
2026-04-28 01:26 42.04921 -79.65850 32864 ft 423 kts 254°
2026-04-28 01:27 42.03946 -79.69575 33347 ft 420 kts 254°
2026-04-28 01:27 42.02982 -79.73275 33789 ft 418 kts 254°
2026-04-28 01:27 42.02016 -79.76956 34220 ft 417 kts 254°
2026-04-28 01:27 42.01050 -79.80613 34638 ft 414 kts 253°
2026-04-28 01:28 42.00105 -79.84183 35172 ft 407 kts 254°
2026-04-28 01:28 41.99161 -79.87743 35643 ft 402 kts 254°
2026-04-28 01:28 41.98224 -79.91271 36119 ft 398 kts 254°
2026-04-28 01:28 41.97296 -79.94765 36526 ft 395 kts 254°
2026-04-28 01:29 41.96378 -79.98229 36915 ft 392 kts 254°
2026-04-28 01:29 41.95467 -80.01665 37294 ft 389 kts 254°
2026-04-28 01:29 41.94559 -80.05077 37642 ft 387 kts 254°
2026-04-28 01:29 41.93646 -80.08479 37972 ft 386 kts 254°
2026-04-28 01:30 41.91831 -80.15272 38061 ft 387 kts 255°
2026-04-28 01:30 41.90010 -80.22063 38058 ft 386 kts 253°
2026-04-28 01:31 41.88186 -80.28829 38056 ft 385 kts 253°
2026-04-28 01:31 41.86371 -80.35591 38058 ft 385 kts 254°
2026-04-28 01:32 41.84541 -80.42345 38068 ft 385 kts 253°
2026-04-28 01:32 41.82697 -80.49101 38068 ft 386 kts 253°
2026-04-28 01:33 41.80874 -80.55820 38072 ft 386 kts 253°
2026-04-28 01:33 41.78984 -80.62559 38065 ft 386 kts 252°
2026-04-28 01:34 41.76945 -80.69213 38063 ft 386 kts 251°
2026-04-28 01:34 41.74865 -80.75854 38066 ft 386 kts 251°
2026-04-28 01:35 41.72803 -80.82502 38067 ft 386 kts 251°
2026-04-28 01:35 41.70761 -80.89159 38062 ft 386 kts 251°
2026-04-28 01:36 41.68717 -80.95809 38059 ft 386 kts 250°
2026-04-28 01:36 41.66672 -81.02430 38055 ft 385 kts 250°
2026-04-28 01:37 41.64639 -81.08992 38029 ft 384 kts 250°
2026-04-28 01:37 41.62597 -81.15588 38022 ft 384 kts 250°
2026-04-28 01:38 41.60555 -81.22172 38020 ft 383 kts 250°
2026-04-28 01:38 41.58492 -81.28736 38025 ft 383 kts 250°
2026-04-28 01:39 41.56439 -81.35296 38073 ft 382 kts 250°
2026-04-28 01:39 41.54394 -81.41843 38075 ft 382 kts 250°
2026-04-28 01:40 41.52345 -81.48368 38074 ft 381 kts 250°
2026-04-28 01:40 41.50291 -81.54890 38075 ft 381 kts 250°
2026-04-28 01:41 41.48253 -81.61357 38007 ft 380 kts 250°
2026-04-28 01:41 41.46198 -81.67861 38000 ft 380 kts 250°
2026-04-28 01:42 41.44130 -81.74359 37983 ft 380 kts 250°
2026-04-28 01:42 41.42061 -81.80836 37990 ft 380 kts 250°
2026-04-28 01:43 41.40012 -81.87261 37988 ft 380 kts 250°
2026-04-28 01:43 41.37950 -81.93731 37988 ft 379 kts 250°
2026-04-28 01:44 41.35876 -82.00199 38000 ft 379 kts 250°
2026-04-28 01:44 41.33765 -82.06637 37991 ft 380 kts 248°
2026-04-28 01:45 41.31329 -82.12898 37994 ft 382 kts 245°
2026-04-28 01:45 41.28752 -82.19075 37976 ft 382 kts 245°
2026-04-28 01:46 41.26206 -82.25268 37986 ft 381 kts 245°
2026-04-28 01:46 41.23702 -82.31482 38001 ft 381 kts 246°
2026-04-28 01:47 41.21213 -82.37702 38020 ft 381 kts 246°
2026-04-28 01:47 41.18727 -82.43868 38037 ft 381 kts 245°
2026-04-28 01:48 41.16219 -82.50053 38043 ft 380 kts 245°
2026-04-28 01:48 41.13602 -82.56157 38031 ft 383 kts 238°
2026-04-28 01:49 41.10356 -82.61795 37994 ft 384 kts 238°
2026-04-28 01:49 41.07098 -82.67426 37998 ft 385 kts 238°
2026-04-28 01:50 41.03837 -82.73063 37996 ft 386 kts 238°
2026-04-28 01:50 41.00567 -82.78713 38010 ft 386 kts 238°
2026-04-28 01:51 40.97301 -82.84337 38022 ft 387 kts 238°
2026-04-28 01:51 40.94014 -82.89991 38015 ft 387 kts 238°
2026-04-28 01:52 40.90725 -82.95637 38003 ft 388 kts 238°
2026-04-28 01:52 40.87425 -83.01296 37995 ft 388 kts 238°
2026-04-28 01:53 40.84136 -83.06910 37998 ft 389 kts 238°
2026-04-28 01:53 40.80824 -83.12564 38002 ft 389 kts 238°
2026-04-28 01:54 40.77507 -83.18226 38017 ft 390 kts 237°
2026-04-28 01:54 40.74180 -83.23886 38023 ft 390 kts 237°
2026-04-28 01:55 40.70839 -83.29545 38006 ft 391 kts 237°
2026-04-28 01:55 40.67086 -83.34830 37988 ft 398 kts 231°
2026-04-28 01:56 40.63165 -83.39921 37982 ft 399 kts 231°
2026-04-28 01:56 40.59206 -83.45062 37955 ft 400 kts 231°
2026-04-28 01:57 40.55241 -83.50203 37973 ft 400 kts 231°
2026-04-28 01:57 40.51267 -83.55342 37969 ft 400 kts 230°
2026-04-28 01:58 40.47307 -83.60463 38005 ft 399 kts 230°
2026-04-28 01:58 40.43348 -83.65570 38010 ft 398 kts 230°
2026-04-28 01:59 40.39395 -83.70662 38012 ft 398 kts 230°
2026-04-28 01:59 40.35466 -83.75713 38022 ft 398 kts 230°
2026-04-28 02:00 40.31514 -83.80780 38014 ft 397 kts 230°
2026-04-28 02:00 40.28224 -83.84988 37991 ft 399 kts 230°
2026-04-28 02:01 40.24242 -83.90079 37983 ft 400 kts 230°
2026-04-28 02:01 40.20250 -83.95170 37987 ft 401 kts 230°
2026-04-28 02:02 40.16251 -84.00272 38000 ft 401 kts 230°
2026-04-28 02:02 40.12249 -84.05372 38015 ft 402 kts 230°
2026-04-28 02:03 40.08243 -84.10461 37975 ft 402 kts 230°
2026-04-28 02:03 40.04220 -84.15561 37979 ft 404 kts 230°
2026-04-28 02:04 40.00179 -84.20662 37981 ft 404 kts 229°
2026-04-28 02:04 39.96134 -84.25770 37984 ft 404 kts 231°
2026-04-28 02:05 39.93015 -84.31676 37989 ft 392 kts 250°
2026-04-28 02:05 39.91754 -84.38447 37972 ft 387 kts 267°
2026-04-28 02:06 39.91468 -84.45397 37969 ft 386 kts 267°
2026-04-28 02:06 39.91172 -84.52332 37941 ft 386 kts 267°
2026-04-28 02:07 39.90858 -84.59307 37934 ft 385 kts 266°
2026-04-28 02:07 39.90537 -84.66276 37902 ft 386 kts 267°
2026-04-28 02:08 39.90220 -84.73232 37927 ft 384 kts 268°
2026-04-28 02:08 39.89895 -84.80157 37928 ft 382 kts 268°
2026-04-28 02:09 39.89563 -84.87052 37923 ft 381 kts 268°
2026-04-28 02:09 39.89230 -84.93934 37919 ft 380 kts 268°
2026-04-28 02:10 39.88904 -85.00803 37907 ft 380 kts 268°
2026-04-28 02:10 39.88567 -85.07664 37890 ft 380 kts 267°
2026-04-28 02:11 39.88224 -85.14525 37875 ft 380 kts 267°
2026-04-28 02:11 39.87883 -85.21387 37865 ft 380 kts 267°
2026-04-28 02:12 39.87541 -85.28206 37840 ft 380 kts 267°
2026-04-28 02:12 39.87189 -85.35078 37857 ft 380 kts 267°
2026-04-28 02:13 39.86824 -85.41952 37855 ft 380 kts 266°
2026-04-28 02:13 39.86463 -85.48835 37834 ft 381 kts 266°
2026-04-28 02:14 39.86099 -85.55729 37826 ft 382 kts 266°
2026-04-28 02:14 39.85726 -85.62585 37811 ft 383 kts 266°
2026-04-28 02:15 39.85161 -85.72976 37824 ft 384 kts 266°
2026-04-28 02:16 39.84777 -85.79898 37836 ft 384 kts 265°
2026-04-28 02:16 39.84392 -85.86829 37837 ft 384 kts 265°
2026-04-28 02:17 39.84004 -85.93770 37836 ft 384 kts 265°
2026-04-28 02:17 39.83606 -86.00704 37838 ft 384 kts 265°
2026-04-28 02:18 39.83206 -86.07598 37839 ft 385 kts 265°
2026-04-28 02:18 39.82802 -86.14539 37836 ft 385 kts 265°
2026-04-28 02:19 39.82393 -86.21488 37793 ft 387 kts 264°
2026-04-28 02:19 39.81976 -86.28496 37794 ft 390 kts 263°
2026-04-28 02:20 39.81525 -86.35540 37798 ft 392 kts 260°
2026-04-28 02:20 39.80105 -86.42370 37800 ft 392 kts 252°
2026-04-28 02:21 39.78452 -86.49133 37796 ft 393 kts 252°
2026-04-28 02:21 39.76788 -86.55912 37784 ft 394 kts 252°
2026-04-28 02:22 39.75121 -86.62711 37800 ft 396 kts 251°
2026-04-28 02:22 39.73441 -86.69534 37815 ft 397 kts 250°
2026-04-28 02:23 39.71765 -86.76315 37830 ft 397 kts 250°
2026-04-28 02:23 39.70071 -86.83165 37836 ft 398 kts 250°
2026-04-28 02:24 39.68374 -86.90000 37839 ft 398 kts 250°
2026-04-28 02:24 39.66671 -86.96837 37845 ft 399 kts 249°
2026-04-28 02:25 39.64951 -87.03707 37813 ft 400 kts 249°
2026-04-28 02:25 39.63228 -87.10597 37795 ft 402 kts 249°
2026-04-28 02:26 39.61497 -87.17494 37786 ft 403 kts 249°
2026-04-28 02:26 39.59758 -87.24362 37861 ft 403 kts 249°
2026-04-28 02:27 39.58009 -87.31276 37881 ft 403 kts 249°
2026-04-28 02:27 39.56249 -87.38221 37884 ft 407 kts 247°
2026-04-28 02:28 39.54471 -87.45212 37838 ft 409 kts 248°
2026-04-28 02:28 39.52686 -87.52210 37848 ft 409 kts 248°
2026-04-28 02:29 39.50902 -87.59199 37811 ft 409 kts 248°
2026-04-28 02:29 39.49126 -87.66151 37815 ft 409 kts 248°
2026-04-28 02:30 39.47335 -87.73121 37836 ft 408 kts 247°
2026-04-28 02:30 39.45532 -87.80108 37820 ft 407 kts 247°
2026-04-28 02:31 39.43737 -87.87053 37806 ft 407 kts 247°
2026-04-28 02:31 39.41935 -87.93998 37793 ft 406 kts 247°
2026-04-28 02:32 39.40142 -88.00887 37791 ft 406 kts 246°
2026-04-28 02:32 39.38342 -88.07811 37780 ft 407 kts 247°
2026-04-28 02:33 39.36607 -88.14785 37801 ft 407 kts 248°
2026-04-28 02:33 39.34893 -88.21745 37439 ft 406 kts 247°
2026-04-28 02:33 39.34013 -88.25206 37119 ft 404 kts 246°
2026-04-28 02:34 39.33108 -88.28644 36491 ft 403 kts 247°
2026-04-28 02:34 39.32185 -88.32080 35763 ft 405 kts 247°
2026-04-28 02:34 39.31261 -88.35483 35010 ft 408 kts 247°
2026-04-28 02:34 39.30319 -88.38951 34227 ft 411 kts 247°
2026-04-28 02:35 39.29370 -88.42461 33329 ft 415 kts 248°
2026-04-28 02:35 39.28420 -88.45994 32368 ft 418 kts 248°
2026-04-28 02:35 39.27470 -88.49546 31436 ft 419 kts 249°
2026-04-28 02:35 39.26519 -88.53105 30453 ft 420 kts 249°
2026-04-28 02:36 39.25564 -88.56679 29317 ft 421 kts 249°
2026-04-28 02:36 39.24611 -88.60239 28161 ft 420 kts 249°
2026-04-28 02:36 39.23656 -88.63798 27026 ft 419 kts 250°
2026-04-28 02:36 39.22711 -88.67297 25937 ft 417 kts 250°
2026-04-28 02:37 39.21755 -88.70818 24881 ft 415 kts 250°
2026-04-28 02:37 39.20801 -88.74323 24045 ft 409 kts 250°
2026-04-28 02:37 39.19883 -88.77709 23802 ft 390 kts 250°
2026-04-28 02:37 39.19008 -88.80938 23573 ft 374 kts 250°
2026-04-28 02:38 39.18167 -88.84035 23350 ft 359 kts 250°
2026-04-28 02:38 39.17318 -88.87082 23109 ft 369 kts 250°
2026-04-28 02:38 39.16410 -88.90274 22839 ft 388 kts 250°
2026-04-28 02:38 39.15489 -88.93531 22583 ft 394 kts 250°
2026-04-28 02:39 39.14555 -88.96857 22324 ft 394 kts 250°
2026-04-28 02:39 39.13627 -89.00171 21927 ft 389 kts 250°
2026-04-28 02:39 39.12717 -89.03427 21055 ft 382 kts 250°
2026-04-28 02:39 39.11828 -89.06624 20196 ft 377 kts 250°
2026-04-28 02:40 39.10942 -89.09772 19356 ft 372 kts 250°
2026-04-28 02:40 39.10062 -89.12879 18591 ft 367 kts 249°
2026-04-28 02:40 39.09128 -89.15844 18445 ft 347 kts 247°
2026-04-28 02:40 39.08172 -89.18614 18325 ft 331 kts 246°
2026-04-28 02:41 39.07225 -89.21242 18216 ft 316 kts 246°
2026-04-28 02:41 39.06314 -89.23746 18107 ft 302 kts 245°
2026-04-28 02:41 39.05444 -89.26152 17861 ft 291 kts 246°
2026-04-28 02:41 39.04610 -89.28486 17596 ft 282 kts 246°
2026-04-28 02:42 39.03809 -89.30740 17337 ft 273 kts 246°
2026-04-28 02:42 39.03044 -89.32910 17093 ft 266 kts 246°
2026-04-28 02:42 39.02292 -89.35046 16829 ft 259 kts 246°
2026-04-28 02:42 39.01556 -89.37132 16573 ft 252 kts 246°
2026-04-28 02:43 39.00839 -89.39162 16330 ft 247 kts 246°
2026-04-28 02:43 39.00137 -89.41151 16075 ft 242 kts 246°
2026-04-28 02:43 38.99448 -89.43103 15820 ft 237 kts 246°
2026-04-28 02:43 38.98774 -89.45010 15583 ft 232 kts 246°
2026-04-28 02:44 38.98114 -89.46881 15340 ft 228 kts 246°
2026-04-28 02:44 38.97462 -89.48727 15105 ft 224 kts 246°
2026-04-28 02:44 38.96824 -89.50539 14858 ft 221 kts 246°
2026-04-28 02:44 38.96197 -89.52319 14622 ft 217 kts 246°
2026-04-28 02:45 38.95578 -89.54071 14386 ft 214 kts 246°
2026-04-28 02:45 38.94967 -89.55794 14151 ft 211 kts 246°
2026-04-28 02:45 38.94366 -89.57496 13920 ft 208 kts 246°
2026-04-28 02:45 38.93773 -89.59171 13687 ft 204 kts 246°
2026-04-28 02:46 38.93186 -89.60823 13446 ft 201 kts 246°
2026-04-28 02:46 38.92617 -89.62424 13185 ft 199 kts 247°
2026-04-28 02:46 38.92045 -89.64027 12925 ft 196 kts 247°
2026-04-28 02:46 38.91480 -89.65611 12667 ft 194 kts 247°
2026-04-28 02:47 38.90922 -89.67177 12405 ft 192 kts 247°
2026-04-28 02:47 38.90371 -89.68724 12148 ft 189 kts 247°
2026-04-28 02:47 38.89825 -89.70254 11911 ft 187 kts 248°
2026-04-28 02:47 38.89288 -89.71761 11656 ft 185 kts 248°
2026-04-28 02:48 38.88757 -89.73253 11385 ft 183 kts 248°
2026-04-28 02:48 38.88228 -89.74736 11139 ft 181 kts 248°
2026-04-28 02:48 38.87704 -89.76200 10896 ft 180 kts 248°
2026-04-28 02:48 38.87187 -89.77649 10653 ft 178 kts 248°
2026-04-28 02:49 38.86847 -89.78601 10497 ft 176 kts 248°
2026-04-28 02:49 38.86338 -89.80024 10257 ft 174 kts 248°
2026-04-28 02:49 38.85836 -89.81430 10020 ft 172 kts 249°
2026-04-28 02:49 38.85187 -89.83245 9794 ft 166 kts 249°
2026-04-28 02:50 38.84710 -89.84580 9579 ft 164 kts 249°
2026-04-28 02:50 38.84234 -89.85909 9348 ft 164 kts 249°
2026-04-28 02:50 38.83913 -89.86806 9189 ft 164 kts 249°
2026-04-28 02:50 38.83438 -89.88134 8940 ft 164 kts 249°
2026-04-28 02:51 38.82967 -89.89452 8703 ft 165 kts 250°
2026-04-28 02:51 38.82486 -89.90794 8461 ft 166 kts 250°
2026-04-28 02:51 38.82002 -89.92138 8221 ft 166 kts 250°
2026-04-28 02:51 38.81520 -89.93482 7971 ft 166 kts 250°
2026-04-28 02:52 38.81034 -89.94838 7729 ft 167 kts 250°
2026-04-28 02:52 38.80548 -89.96191 7484 ft 167 kts 250°
2026-04-28 02:52 38.80060 -89.97547 7240 ft 167 kts 250°
2026-04-28 02:52 38.79584 -89.98864 7027 ft 162 kts 251°
2026-04-28 02:53 38.79116 -90.00159 6821 ft 158 kts 251°
2026-04-28 02:53 38.78660 -90.01420 6576 ft 152 kts 251°
2026-04-28 02:53 38.78228 -90.02614 6360 ft 145 kts 252°
2026-04-28 02:53 38.77810 -90.03775 6151 ft 142 kts 252°
2026-04-28 02:54 38.77397 -90.04925 5932 ft 142 kts 252°
2026-04-28 02:54 38.76986 -90.06063 5736 ft 140 kts 252°
2026-04-28 02:54 38.76576 -90.07199 5518 ft 140 kts 252°
2026-04-28 02:54 38.76169 -90.08329 5306 ft 139 kts 252°
2026-04-28 02:55 38.75769 -90.09437 5110 ft 138 kts 252°
2026-04-28 02:55 38.75365 -90.10555 4899 ft 138 kts 252°
2026-04-28 02:55 38.74962 -90.11671 4696 ft 137 kts 252°
2026-04-28 02:55 38.74563 -90.12776 4492 ft 136 kts 252°
2026-04-28 02:56 38.74166 -90.13874 4269 ft 135 kts 252°
2026-04-28 02:56 38.73771 -90.14974 4079 ft 135 kts 253°
2026-04-28 02:56 38.73378 -90.16066 3865 ft 135 kts 252°
2026-04-28 02:56 38.72983 -90.17157 3670 ft 134 kts 252°
2026-04-28 02:57 38.72596 -90.18226 3506 ft 134 kts 251°
2026-04-28 02:57 38.72205 -90.19304 3322 ft 133 kts 251°
2026-04-28 02:57 38.71815 -90.20378 3121 ft 133 kts 251°
2026-04-28 02:57 38.71428 -90.21448 2917 ft 132 kts 251°
2026-04-28 02:58 38.71044 -90.22513 2727 ft 132 kts 250°
2026-04-28 02:58 38.70658 -90.23578 2533 ft 131 kts 250°
2026-04-28 02:58 38.70273 -90.24641 2343 ft 131 kts 249°
2026-04-28 02:58 38.70067 -90.25760 2115 ft 131 kts 271°
2026-04-28 02:59 38.70355 -90.26871 1925 ft 134 kts 298°
2026-04-28 02:59 38.70901 -90.27837 1694 ft 132 kts 298°
2026-04-28 02:59 38.71381 -90.28823 1472 ft 130 kts 296°
2026-04-28 02:59 38.71831 -90.29830 1299 ft 130 kts 296°
2026-04-28 03:00 38.72317 -90.30825 1189 ft 132 kts 298°
2026-04-28 03:00 38.72800 -90.31813 979 ft 130 kts 301°
2026-04-28 03:00 38.73285 -90.32804 826 ft 134 kts 300°
2026-04-28 03:00 38.73778 -90.33793 596 ft 133 kts 299°
2026-04-28 03:01 38.74237 -90.34727 536 ft 102 kts 302°
2026-04-28 03:01 38.74456 -90.35165 541 ft 15 kts 303°
2026-04-28 03:01 38.74499 -90.35251 551 ft 19 kts 302°
2026-04-28 03:01 38.74589 -90.35263 546 ft 15 kts 31°
2026-04-28 03:02 38.74678 -90.35192 555 ft 4 kts 32°